FENGYUN 2H              
1 43491U 18050A   19257.91235821 -.00000139  00000-0  00000-0 0  9994
2 43491   1.3126 280.6384 0003194 240.5846 239.8596  1.00270015  4779
CZ-3A R/B               
1 43492U 18050B   19258.29180127 -.00000122  00000-0  11192-3 0  9994
2 43492  24.3551 272.1097 7268605 111.4715 335.6422  2.23573684 10440
FENGYUN 2H AKM          
1 43497U 18050C   19257.43712747 -.00000365  00000-0  00000+0 0  9994
2 43497   1.3651 279.8293 0084293  73.4487 286.5444  1.00078715  4606
FENGYUN 2H DEB          
1 43645U 18050D   19258.64410521  .00000087  00000-0  00000+0 0  9998
2 43645   1.3086 280.4851 0033163 318.1309  40.5986  1.00273169  4185